This is the latest recevied weather packets stored in our database for station/object S54A-10. If no packets are shown the sender has not sent any weather packets the latest 10 day(s).
| Time | Temp. | Humidity | Pressure | Rain* | Wind** | Luminosity | Snow |
|---|---|---|---|---|---|---|---|
| 1777651211 | 28.89° C | 28% | 1025.7 hPa | - | - | - | - |
| 1777650311 | 28.33° C | 29% | 1025.7 hPa | - | - | - | - |
| 1777649411 | 28.33° C | 28% | 1025.8 hPa | - | - | - | - |
| 1777648511 | 27.78° C | 28% | 1025.9 hPa | - | - | - | - |
| 1777647611 | 25.56° C | 29% | 1025.9 hPa | - | - | - | - |
| 1777646711 | 24.44° C | 31% | 1026 hPa | - | - | - | - |
| 1777645811 | 23.89° C | 31% | 1026.2 hPa | - | - | - | - |
| 1777644911 | 26.11° C | 29% | 1026.3 hPa | - | - | - | - |
| 1777644011 | 25° C | 31% | 1026.5 hPa | - | - | - | - |
| 1777643111 | 22.78° C | 33% | 1026.6 hPa | - | - | - | - |
| 1777642211 | 22.22° C | 34% | 1026.7 hPa | - | - | - | - |
| 1777641310 | 21.11° C | 35% | 1027 hPa | - | - | - | - |
| 1777640410 | 20.56° C | 34% | 1027.2 hPa | - | - | - | - |
| 1777639510 | 20° C | 34% | 1027.1 hPa | - | - | - | - |
| 1777638609 | 19.44° C | 35% | 1027.5 hPa | - | - | - | - |
| 1777637709 | 19.44° C | 35% | 1027.6 hPa | - | - | - | - |
| 1777636809 | 18.89° C | 35% | 1027.8 hPa | - | - | - | - |
| 1777635908 | 18.33° C | 37% | 1027.8 hPa | - | - | - | - |
| 1777635008 | 17.22° C | 37% | 1028 hPa | - | - | - | - |
| 1777634108 | 17.22° C | 38% | 1028.3 hPa | - | - | - | - |
| 1777633208 | 17.22° C | 38% | 1028.4 hPa | - | - | - | - |
| 1777632308 | 16.67° C | 39% | 1028.6 hPa | - | - | - | - |
| 1777631408 | 16.11° C | 41% | 1028.8 hPa | - | - | - | - |
| 1777630508 | 15.56° C | 40% | 1029 hPa | - | - | - | - |
| 1777629608 | 15° C | 42% | 1029 hPa | - | - | - | - |
* Rain since midnight (hover to see other rain measurements)
** Current wind speed in m/s (hover to see current wind gust speed)